Ghent, WV (25843)

12:36 PM EST on February 14, 2016 (GMT -0500)
Flat Top Lake | | Change Station
CLOSE
Current Station
Personal Weather Station
Location: Ghent, WV
Elevation: 2969 ft
Nearby Weather Stations

Elev 2969 ft 37.62 °N, 81.09 °W | Updated 3 minutes ago

Overcast
Overcast
14.0 °F
Feels Like 4 °F
N
6.3
Wind Variable Wind from WSW

Today
High -- | Low -- °F
--% Chance of Precip.
Yesterday
High -- | Low -- °F
Precip. -- in
Pressure 30.51 in
Visibility 10.0 miles
Clouds Overcast 8500 ft
Windchill 4 °F
Dew Point -0 °F
Humidity 52%
Rainfall 0.00 in
Snow Depth Not available.
7:15 AM 6:02 PM
Waxing Crescent, 43% visible
METAR KBKW 141651Z AUTO 13005KT 10SM OVC085 M11/M18 A3030 RMK AO2 SLP329 T11061183
Pressure 30.51 in
Visibility 10.0 miles
Clouds Overcast 8500 ft
Windchill 4 °F
Dew Point -0 °F
Humidity 52%
Rainfall 0.00 in
Snow Depth Not available.
7:15 AM 6:02 PM
Waxing Crescent, 43% visible
METAR KBKW 141651Z AUTO 13005KT 10SM OVC085 M11/M18 A3030 RMK AO2 SLP329 T11061183

10-Day Weather Forecast

Almanac

Astronomy

Feb. 14, 2016 Rise Set
Actual Time
Civil Twilight
Nautical Twilight
Astronomical Twilight
Moon
Length of Visible Light
Length of Day
Tomorrow will be .
, % of the Moon is Illuminated

Today's Extremes

State Highs State Lows

Community

WunderPhotos

Upload Photos

1,892,859 photos uploaded!

WunderBlog® & News

Nearby

Air Quality

  Air Quality AQ Index Pollutant
Not available.

Snow Depth

Station Depth Elevation

Earthquake Activity

City Distance Mag. Time & Date
Minimum magnitude displayed is 2.5.

Coastal Water Temperatures

Place Temperature

Stations

Nearby Weather Stations

Station Location Temp. Windchill Dew Point Humidity Wind Precip. Elev Updated Type
                   

Watches & Warnings

Winter Storm Warning
Issued: 5:52 AM EST Feb. 14, 2016 – National Weather Service

... Winter Storm Warning remains in effect from 2 PM this
afternoon to 1 PM EST Monday...

* accumulations... snow accumulation of 3 to 6 inches... along with
around a trace of ice. Ice accretion up to a tenth of an inch is
possible in far eastern Raleigh County on Monday.

* Temperatures... in the 20s... rising through the 30s Monday.

* Timing... this afternoon through early Monday afternoon.

* Impacts... untreated roads will be come snow covered... creating
hazardous travel conditions.

Precautionary/preparedness actions...

A Winter Storm Warning for heavy snow means severe winter weather
conditions are expected or occurring. Significant amounts of snow
are forecast that will make travel dangerous. Only travel in an
emergency. If you must travel... keep an extra flashlight...
food... and water in your vehicle in case of an emergency.